owner,sensor,date,latitude,longitude,vertical_datum,sea_water_temperature,qcFlag
BP,ioos:station:wmo:42907:2,2021-01-01T00:04:00Z,27.1318,-90.3386,11.0,22.4,11111222
BP,ioos:station:wmo:42907:2,2021-01-01T00:14:00Z,27.1318,-90.3386,11.0,22.3,11111222
BP,ioos:station:wmo:42907:2,2021-01-01T00:24:00Z,27.1318,-90.3386,11.0,22.3,11111222
BP,ioos:station:wmo:42907:2,2021-01-01T00:34:00Z,27.1318,-90.3386,11.0,22.4,11111222
BP,ioos:station:wmo:42907:2,2021-01-01T00:44:00Z,27.1318,-90.3386,11.0,22.3,11111222
BP,ioos:station:wmo:42907:2,2021-01-01T00:54:00Z,27.1318,-90.3386,11.0,22.3,11111222
BP,ioos:station:wmo:42907:2,2021-01-01T01:04:00Z,27.1318,-90.3386,11.0,22.3,11111222
BP,ioos:station:wmo:42907:2,2021-01-01T01:14:00Z,27.1318,-90.3386,11.0,22.3,11111222
BP,ioos:station:wmo:42907:2,2021-01-01T01:24:00Z,27.1318,-90.3386,11.0,22.2,11111222
BP,ioos:station:wmo:42907:2,2021-01-01T01:34:00Z,27.1318,-90.3386,11.0,22.3,11111222
BP,ioos:station:wmo:42907:2,2021-01-01T01:44:00Z,27.1318,-90.3386,11.0,22.5,11111222
BP,ioos:station:wmo:42907:2,2021-01-01T01:54:00Z,27.1318,-90.3386,11.0,22.3,11111222
BP,ioos:station:wmo:42907:2,2021-01-01T02:04:00Z,27.1318,-90.3386,11.0,22.3,11111222
BP,ioos:station:wmo:42907:2,2021-01-01T02:14:00Z,27.1318,-90.3386,11.0,22.3,11111222
BP,ioos:station:wmo:42907:2,2021-01-01T02:24:00Z,27.1318,-90.3386,11.0,22.2,11111222
BP,ioos:station:wmo:42907:2,2021-01-01T02:34:00Z,27.1318,-90.3386,11.0,22.3,11111222
BP,ioos:station:wmo:42907:2,2021-01-01T02:44:00Z,27.1318,-90.3386,11.0,22.3,11111222
BP,ioos:station:wmo:42907:2,2021-01-01T02:54:00Z,27.1318,-90.3386,11.0,22.3,11111222
BP,ioos:station:wmo:42907:2,2021-01-01T03:04:00Z,27.1318,-90.3386,11.0,22.2,11111222
BP,ioos:station:wmo:42907:2,2021-01-01T03:14:00Z,27.1318,-90.3386,11.0,22.3,11111222
BP,ioos:station:wmo:42907:2,2021-01-01T03:24:00Z,27.1318,-90.3386,11.0,22.3,11111222
BP,ioos:station:wmo:42907:2,2021-01-01T03:34:00Z,27.1318,-90.3386,11.0,22.3,11111222
BP,ioos:station:wmo:42907:2,2021-01-01T03:44:00Z,27.1318,-90.3386,11.0,22.4,11111222
BP,ioos:station:wmo:42907:2,2021-01-01T03:54:00Z,27.1318,-90.3386,11.0,22.4,11111222
BP,ioos:station:wmo:42907:2,2021-01-01T04:04:00Z,27.1318,-90.3386,11.0,22.4,11111222
BP,ioos:station:wmo:42907:2,2021-01-01T04:14:00Z,27.1318,-90.3386,11.0,22.2,11111222
BP,ioos:station:wmo:42907:2,2021-01-01T04:24:00Z,27.1318,-90.3386,11.0,22.3,11111222
BP,ioos:station:wmo:42907:2,2021-01-01T04:34:00Z,27.1318,-90.3386,11.0,22.2,11111222
BP,ioos:station:wmo:42907:2,2021-01-01T04:44:00Z,27.1318,-90.3386,11.0,22.3,11111222
BP,ioos:station:wmo:42907:2,2021-01-01T04:54:00Z,27.1318,-90.3386,11.0,22.3,11111222
BP,ioos:station:wmo:42907:2,2021-01-01T05:04:00Z,27.1318,-90.3386,11.0,22.2,11111222
BP,ioos:station:wmo:42907:2,2021-01-01T05:14:00Z,27.1318,-90.3386,11.0,22.3,11111222
BP,ioos:station:wmo:42907:2,2021-01-01T05:24:00Z,27.1318,-90.3386,11.0,22.4,11111222
BP,ioos:station:wmo:42907:2,2021-01-01T05:34:00Z,27.1318,-90.3386,11.0,22.4,11111222
BP,ioos:station:wmo:42907:2,2021-01-01T05:44:00Z,27.1318,-90.3386,11.0,22.3,11111222
BP,ioos:station:wmo:42907:2,2021-01-01T05:54:00Z,27.1318,-90.3386,11.0,22.5,11111222
BP,ioos:station:wmo:42907:2,2021-01-01T06:04:00Z,27.1318,-90.3386,11.0,22.3,11111222
BP,ioos:station:wmo:42907:2,2021-01-01T06:14:00Z,27.1318,-90.3386,11.0,22.3,11111222
BP,ioos:station:wmo:42907:2,2021-01-01T06:24:00Z,27.1318,-90.3386,11.0,22.3,11111222
BP,ioos:station:wmo:42907:2,2021-01-01T06:34:00Z,27.1318,-90.3386,11.0,22.3,11111222
BP,ioos:station:wmo:42907:2,2021-01-01T06:44:00Z,27.1318,-90.3386,11.0,22.4,11111222
BP,ioos:station:wmo:42907:2,2021-01-01T06:54:00Z,27.1318,-90.3386,11.0,22.3,11111222
BP,ioos:station:wmo:42907:2,2021-01-01T07:04:00Z,27.1318,-90.3386,11.0,22.2,11111222
BP,ioos:station:wmo:42907:2,2021-01-01T07:14:00Z,27.1318,-90.3386,11.0,22.4,11111222
BP,ioos:station:wmo:42907:2,2021-01-01T07:24:00Z,27.1318,-90.3386,11.0,22.3,11111222
BP,ioos:station:wmo:42907:2,2021-01-01T07:34:00Z,27.1318,-90.3386,11.0,22.3,11111222
BP,ioos:station:wmo:42907:2,2021-01-01T07:44:00Z,27.1318,-90.3386,11.0,22.2,11111222
BP,ioos:station:wmo:42907:2,2021-01-01T07:54:00Z,27.1318,-90.3386,11.0,22.4,11111222
BP,ioos:station:wmo:42907:2,2021-01-01T08:04:00Z,27.1318,-90.3386,11.0,22.3,11111222
BP,ioos:station:wmo:42907:2,2021-01-01T08:14:00Z,27.1318,-90.3386,11.0,22.3,11111222
BP,ioos:station:wmo:42907:2,2021-01-01T08:24:00Z,27.1318,-90.3386,11.0,22.3,11111222
BP,ioos:station:wmo:42907:2,2021-01-01T08:34:00Z,27.1318,-90.3386,11.0,22.3,11111222
BP,ioos:station:wmo:42907:2,2021-01-01T08:44:00Z,27.1318,-90.3386,11.0,22.3,11111222
BP,ioos:station:wmo:42907:2,2021-01-01T08:54:00Z,27.1318,-90.3386,11.0,22.3,11111222
BP,ioos:station:wmo:42907:2,2021-01-01T09:04:00Z,27.1318,-90.3386,11.0,22.4,11111222
BP,ioos:station:wmo:42907:2,2021-01-01T09:14:00Z,27.1318,-90.3386,11.0,22.3,11111222
BP,ioos:station:wmo:42907:2,2021-01-01T09:24:00Z,27.1318,-90.3386,11.0,22.4,11111222
BP,ioos:station:wmo:42907:2,2021-01-01T09:34:00Z,27.1318,-90.3386,11.0,22.3,11111222
BP,ioos:station:wmo:42907:2,2021-01-01T09:44:00Z,27.1318,-90.3386,11.0,22.2,11111222
BP,ioos:station:wmo:42907:2,2021-01-01T09:54:00Z,27.1318,-90.3386,11.0,22.2,11111222
BP,ioos:station:wmo:42907:2,2021-01-01T10:04:00Z,27.1318,-90.3386,11.0,22.3,11111222
BP,ioos:station:wmo:42907:2,2021-01-01T10:14:00Z,27.1318,-90.3386,11.0,22.1,11111222
BP,ioos:station:wmo:42907:2,2021-01-01T10:24:00Z,27.1318,-90.3386,11.0,22.2,11111222
BP,ioos:station:wmo:42907:2,2021-01-01T10:34:00Z,27.1318,-90.3386,11.0,22.2,11111222
BP,ioos:station:wmo:42907:2,2021-01-01T10:44:00Z,27.1318,-90.3386,11.0,22.3,11111222
BP,ioos:station:wmo:42907:2,2021-01-01T10:54:00Z,27.1318,-90.3386,11.0,22.1,11111222
BP,ioos:station:wmo:42907:2,2021-01-01T11:04:00Z,27.1318,-90.3386,11.0,22.1,11111222
BP,ioos:station:wmo:42907:2,2021-01-01T11:14:00Z,27.1318,-90.3386,11.0,22.2,11111222
BP,ioos:station:wmo:42907:2,2021-01-01T11:24:00Z,27.1318,-90.3386,11.0,22.3,11111222
BP,ioos:station:wmo:42907:2,2021-01-01T11:34:00Z,27.1318,-90.3386,11.0,22.3,11111222
BP,ioos:station:wmo:42907:2,2021-01-01T11:44:00Z,27.1318,-90.3386,11.0,22.3,11111222
BP,ioos:station:wmo:42907:2,2021-01-01T11:54:00Z,27.1318,-90.3386,11.0,22.3,11111222
BP,ioos:station:wmo:42907:2,2021-01-01T12:04:00Z,27.1318,-90.3386,11.0,22.2,11111222
BP,ioos:station:wmo:42907:2,2021-01-01T12:14:00Z,27.1318,-90.3386,11.0,22.2,11111222
BP,ioos:station:wmo:42907:2,2021-01-01T12:24:00Z,27.1318,-90.3386,11.0,22.2,11111222
BP,ioos:station:wmo:42907:2,2021-01-01T12:34:00Z,27.1318,-90.3386,11.0,22.2,11111222
BP,ioos:station:wmo:42907:2,2021-01-01T12:44:00Z,27.1318,-90.3386,11.0,22.3,11111222
BP,ioos:station:wmo:42907:2,2021-01-01T12:54:00Z,27.1318,-90.3386,11.0,22.2,11111222
BP,ioos:station:wmo:42907:2,2021-01-01T13:04:00Z,27.1318,-90.3386,11.0,22.1,11111222
BP,ioos:station:wmo:42907:2,2021-01-01T13:14:00Z,27.1318,-90.3386,11.0,22.3,11111222
BP,ioos:station:wmo:42907:2,2021-01-01T13:24:00Z,27.1318,-90.3386,11.0,22.4,11111222
BP,ioos:station:wmo:42907:2,2021-01-01T13:34:00Z,27.1318,-90.3386,11.0,22.3,11111222
BP,ioos:station:wmo:42907:2,2021-01-01T13:44:00Z,27.1318,-90.3386,11.0,22.3,11111222
BP,ioos:station:wmo:42907:2,2021-01-01T13:54:00Z,27.1318,-90.3386,11.0,22.3,11111222
BP,ioos:station:wmo:42907:2,2021-01-01T14:04:00Z,27.1318,-90.3386,11.0,22.3,11111222
BP,ioos:station:wmo:42907:2,2021-01-01T14:14:00Z,27.1318,-90.3386,11.0,22.2,11111222
BP,ioos:station:wmo:42907:2,2021-01-01T14:24:00Z,27.1318,-90.3386,11.0,22.2,11111222
BP,ioos:station:wmo:42907:2,2021-01-01T14:34:00Z,27.1318,-90.3386,11.0,22.2,11111222
BP,ioos:station:wmo:42907:2,2021-01-01T14:44:00Z,27.1318,-90.3386,11.0,22.3,11111222
BP,ioos:station:wmo:42907:2,2021-01-01T14:54:00Z,27.1318,-90.3386,11.0,22.2,11111222
BP,ioos:station:wmo:42907:2,2021-01-01T15:04:00Z,27.1318,-90.3386,11.0,22.2,11111222
BP,ioos:station:wmo:42907:2,2021-01-01T15:14:00Z,27.1318,-90.3386,11.0,22.3,11111222
BP,ioos:station:wmo:42907:2,2021-01-01T15:24:00Z,27.1318,-90.3386,11.0,22.1,11111222
BP,ioos:station:wmo:42907:2,2021-01-01T15:34:00Z,27.1318,-90.3386,11.0,22.3,11111222
BP,ioos:station:wmo:42907:2,2021-01-12T13:54:00Z,27.1318,-90.3386,11.0,21.2,11111222
BP,ioos:station:wmo:42907:2,2021-01-12T14:04:00Z,27.1318,-90.3386,11.0,21.5,11111222
BP,ioos:station:wmo:42907:2,2021-01-12T14:14:00Z,27.1318,-90.3386,11.0,21.5,11111222
BP,ioos:station:wmo:42907:2,2021-01-12T14:24:00Z,27.1318,-90.3386,11.0,21.6,11111222
BP,ioos:station:wmo:42907:2,2021-01-12T14:34:00Z,27.1318,-90.3386,11.0,21.6,11111222
BP,ioos:station:wmo:42907:2,2021-01-12T14:44:00Z,27.1318,-90.3386,11.0,21.6,11111222
BP,ioos:station:wmo:42907:2,2021-01-12T14:54:00Z,27.1318,-90.3386,11.0,21.6,11111222
BP,ioos:station:wmo:42907:2,2021-01-12T15:04:00Z,27.1318,-90.3386,11.0,21.6,11111222
BP,ioos:station:wmo:42907:2,2021-01-12T15:14:00Z,27.1318,-90.3386,11.0,21.8,11111222
BP,ioos:station:wmo:42907:2,2021-01-12T15:24:00Z,27.1318,-90.3386,11.0,21.6,11111222
BP,ioos:station:wmo:42907:2,2021-01-12T15:34:00Z,27.1318,-90.3386,11.0,21.7,11111222
BP,ioos:station:wmo:42907:2,2021-01-12T15:44:00Z,27.1318,-90.3386,11.0,21.6,11111222
BP,ioos:station:wmo:42907:2,2021-01-12T15:54:00Z,27.1318,-90.3386,11.0,21.7,11111222
BP,ioos:station:wmo:42907:2,2021-01-12T16:04:00Z,27.1318,-90.3386,11.0,21.7,11111222
BP,ioos:station:wmo:42907:2,2021-01-12T16:14:00Z,27.1318,-90.3386,11.0,21.7,11111222
BP,ioos:station:wmo:42907:2,2021-01-12T16:24:00Z,27.1318,-90.3386,11.0,21.7,11111222
BP,ioos:station:wmo:42907:2,2021-01-12T16:34:00Z,27.1318,-90.3386,11.0,21.9,11111222
BP,ioos:station:wmo:42907:2,2021-01-12T16:44:00Z,27.1318,-90.3386,11.0,21.8,11111222
BP,ioos:station:wmo:42907:2,2021-01-12T16:54:00Z,27.1318,-90.3386,11.0,21.7,11111222
BP,ioos:station:wmo:42907:2,2021-01-12T17:04:00Z,27.1318,-90.3386,11.0,21.6,11111222
BP,ioos:station:wmo:42907:2,2021-01-12T17:14:00Z,27.1318,-90.3386,11.0,21.8,11111222
BP,ioos:station:wmo:42907:2,2021-01-12T17:24:00Z,27.1318,-90.3386,11.0,21.7,11111222
BP,ioos:station:wmo:42907:2,2021-01-12T17:34:00Z,27.1318,-90.3386,11.0,21.7,11111222
BP,ioos:station:wmo:42907:2,2021-01-12T17:44:00Z,27.1318,-90.3386,11.0,21.7,11111222
BP,ioos:station:wmo:42907:2,2021-01-12T17:54:00Z,27.1318,-90.3386,11.0,21.7,11111222
BP,ioos:station:wmo:42907:2,2021-01-12T18:04:00Z,27.1318,-90.3386,11.0,21.6,11111222
BP,ioos:station:wmo:42907:2,2021-01-12T18:14:00Z,27.1318,-90.3386,11.0,21.7,11111222
BP,ioos:station:wmo:42907:2,2021-01-12T18:24:00Z,27.1318,-90.3386,11.0,21.6,11111222
BP,ioos:station:wmo:42907:2,2021-01-12T18:34:00Z,27.1318,-90.3386,11.0,21.7,11111222
BP,ioos:station:wmo:42907:2,2021-01-12T18:44:00Z,27.1318,-90.3386,11.0,21.7,11111222
BP,ioos:station:wmo:42907:2,2021-01-12T18:54:00Z,27.1318,-90.3386,11.0,21.7,11111222
BP,ioos:station:wmo:42907:2,2021-01-12T19:04:00Z,27.1318,-90.3386,11.0,21.8,11111222
BP,ioos:station:wmo:42907:2,2021-01-12T19:14:00Z,27.1318,-90.3386,11.0,21.7,11111222
BP,ioos:station:wmo:42907:2,2021-01-12T19:24:00Z,27.1318,-90.3386,11.0,21.7,11111222
BP,ioos:station:wmo:42907:2,2021-01-12T19:34:00Z,27.1318,-90.3386,11.0,21.8,11111222
BP,ioos:station:wmo:42907:2,2021-01-12T19:44:00Z,27.1318,-90.3386,11.0,21.8,11111222
BP,ioos:station:wmo:42907:2,2021-01-12T19:54:00Z,27.1318,-90.3386,11.0,21.9,11111222
BP,ioos:station:wmo:42907:2,2021-01-12T20:04:00Z,27.1318,-90.3386,11.0,21.8,11111222
BP,ioos:station:wmo:42907:2,2021-01-12T20:14:00Z,27.1318,-90.3386,11.0,21.8,11111222
BP,ioos:station:wmo:42907:2,2021-01-12T20:24:00Z,27.1318,-90.3386,11.0,21.6,11111222
BP,ioos:station:wmo:42907:2,2021-01-12T20:34:00Z,27.1318,-90.3386,11.0,21.8,11111222
BP,ioos:station:wmo:42907:2,2021-01-12T20:44:00Z,27.1318,-90.3386,11.0,21.8,11111222
BP,ioos:station:wmo:42907:2,2021-01-12T20:54:00Z,27.1318,-90.3386,11.0,21.7,11111222
BP,ioos:station:wmo:42907:2,2021-01-12T21:04:00Z,27.1318,-90.3386,11.0,21.8,11111222
BP,ioos:station:wmo:42907:2,2021-01-12T21:14:00Z,27.1318,-90.3386,11.0,21.8,11111222
BP,ioos:station:wmo:42907:2,2021-01-12T21:24:00Z,27.1318,-90.3386,11.0,21.7,11111222
BP,ioos:station:wmo:42907:2,2021-01-12T21:34:00Z,27.1318,-90.3386,11.0,21.8,11111222
BP,ioos:station:wmo:42907:2,2021-01-12T21:44:00Z,27.1318,-90.3386,11.0,21.9,11111222
BP,ioos:station:wmo:42907:2,2021-01-12T21:54:00Z,27.1318,-90.3386,11.0,21.9,11111222
BP,ioos:station:wmo:42907:2,2021-01-12T22:04:00Z,27.1318,-90.3386,11.0,21.8,11111222
BP,ioos:station:wmo:42907:2,2021-01-12T22:14:00Z,27.1318,-90.3386,11.0,21.9,11111222
BP,ioos:station:wmo:42907:2,2021-01-12T22:24:00Z,27.1318,-90.3386,11.0,21.8,11111222
BP,ioos:station:wmo:42907:2,2021-01-12T22:34:00Z,27.1318,-90.3386,11.0,21.6,11111222
BP,ioos:station:wmo:42907:2,2021-01-12T22:44:00Z,27.1318,-90.3386,11.0,21.9,11111222
BP,ioos:station:wmo:42907:2,2021-01-12T22:54:00Z,27.1318,-90.3386,11.0,21.7,11111222
BP,ioos:station:wmo:42907:2,2021-01-12T23:04:00Z,27.1318,-90.3386,11.0,21.7,11111222
BP,ioos:station:wmo:42907:2,2021-01-12T23:14:00Z,27.1318,-90.3386,11.0,21.7,11111222
BP,ioos:station:wmo:42907:2,2021-01-12T23:24:00Z,27.1318,-90.3386,11.0,21.8,11111222
BP,ioos:station:wmo:42907:2,2021-01-12T23:34:00Z,27.1318,-90.3386,11.0,21.8,11111222
BP,ioos:station:wmo:42907:2,2021-01-12T23:44:00Z,27.1318,-90.3386,11.0,21.9,11111222
BP,ioos:station:wmo:42907:2,2021-01-12T23:54:00Z,27.1318,-90.3386,11.0,21.8,11111222
BP,ioos:station:wmo:42907:2,2021-01-13T00:04:00Z,27.1318,-90.3386,11.0,21.7,11111222
BP,ioos:station:wmo:42907:2,2021-01-13T00:14:00Z,27.1318,-90.3386,11.0,21.8,11111222
BP,ioos:station:wmo:42907:2,2021-01-13T00:24:00Z,27.1318,-90.3386,11.0,21.8,11111222
BP,ioos:station:wmo:42907:2,2021-01-13T00:34:00Z,27.1318,-90.3386,11.0,21.6,11111222
BP,ioos:station:wmo:42907:2,2021-01-13T00:44:00Z,27.1318,-90.3386,11.0,21.8,11111222
BP,ioos:station:wmo:42907:2,2021-01-13T00:54:00Z,27.1318,-90.3386,11.0,21.9,11111222
BP,ioos:station:wmo:42907:2,2021-01-13T01:04:00Z,27.1318,-90.3386,11.0,21.6,11111222
BP,ioos:station:wmo:42907:2,2021-01-13T01:14:00Z,27.1318,-90.3386,11.0,21.8,11111222
BP,ioos:station:wmo:42907:2,2021-01-13T01:24:00Z,27.1318,-90.3386,11.0,21.8,11111222
BP,ioos:station:wmo:42907:2,2021-01-13T01:34:00Z,27.1318,-90.3386,11.0,21.8,11111222
BP,ioos:station:wmo:42907:2,2021-01-13T01:44:00Z,27.1318,-90.3386,11.0,21.7,11111222
BP,ioos:station:wmo:42907:2,2021-01-13T01:54:00Z,27.1318,-90.3386,11.0,21.8,11111222
BP,ioos:station:wmo:42907:2,2021-01-13T02:04:00Z,27.1318,-90.3386,11.0,21.7,11111222
BP,ioos:station:wmo:42907:2,2021-01-13T02:14:00Z,27.1318,-90.3386,11.0,21.8,11111222
BP,ioos:station:wmo:42907:2,2021-01-13T02:24:00Z,27.1318,-90.3386,11.0,21.8,11111222
BP,ioos:station:wmo:42907:2,2021-01-13T02:34:00Z,27.1318,-90.3386,11.0,21.8,11111222
BP,ioos:station:wmo:42907:2,2021-01-13T02:44:00Z,27.1318,-90.3386,11.0,21.7,11111222
BP,ioos:station:wmo:42907:2,2021-01-13T02:54:00Z,27.1318,-90.3386,11.0,21.8,11111222
BP,ioos:station:wmo:42907:2,2021-01-13T03:04:00Z,27.1318,-90.3386,11.0,21.7,11111222
BP,ioos:station:wmo:42907:2,2021-01-13T03:14:00Z,27.1318,-90.3386,11.0,21.7,11111222
BP,ioos:station:wmo:42907:2,2021-01-13T03:24:00Z,27.1318,-90.3386,11.0,21.8,11111222
BP,ioos:station:wmo:42907:2,2021-01-13T03:34:00Z,27.1318,-90.3386,11.0,21.8,11111222
BP,ioos:station:wmo:42907:2,2021-01-13T03:44:00Z,27.1318,-90.3386,11.0,21.7,11111222
BP,ioos:station:wmo:42907:2,2021-01-13T03:54:00Z,27.1318,-90.3386,11.0,21.8,11111222
BP,ioos:station:wmo:42907:2,2021-01-13T04:04:00Z,27.1318,-90.3386,11.0,21.9,11111222
BP,ioos:station:wmo:42907:2,2021-01-13T04:14:00Z,27.1318,-90.3386,11.0,21.8,11111222
BP,ioos:station:wmo:42907:2,2021-01-13T04:24:00Z,27.1318,-90.3386,11.0,21.8,11111222
BP,ioos:station:wmo:42907:2,2021-01-13T04:44:00Z,27.1318,-90.3386,11.0,21.8,11111222
BP,ioos:station:wmo:42907:2,2021-01-13T04:54:00Z,27.1318,-90.3386,11.0,21.6,11111222
BP,ioos:station:wmo:42907:2,2021-01-13T05:04:00Z,27.1318,-90.3386,11.0,21.9,11111222
BP,ioos:station:wmo:42907:2,2021-01-13T05:14:00Z,27.1318,-90.3386,11.0,21.8,11111222
BP,ioos:station:wmo:42907:2,2021-01-13T05:24:00Z,27.1318,-90.3386,11.0,21.8,11111222
BP,ioos:station:wmo:42907:2,2021-01-13T05:34:00Z,27.1318,-90.3386,11.0,22.0,11111222
BP,ioos:station:wmo:42907:2,2021-01-13T05:44:00Z,27.1318,-90.3386,11.0,21.7,11111222
BP,ioos:station:wmo:42907:2,2021-01-13T05:54:00Z,27.1318,-90.3386,11.0,21.7,11111222
BP,ioos:station:wmo:42907:2,2021-01-13T06:04:00Z,27.1318,-90.3386,11.0,21.7,11111222
BP,ioos:station:wmo:42907:2,2021-01-13T06:14:00Z,27.1318,-90.3386,11.0,21.8,11111222
BP,ioos:station:wmo:42907:2,2021-01-13T06:24:00Z,27.1318,-90.3386,11.0,21.8,11111222
BP,ioos:station:wmo:42907:2,2021-01-13T06:34:00Z,27.1318,-90.3386,11.0,21.7,11111222
BP,ioos:station:wmo:42907:2,2021-01-13T06:44:00Z,27.1318,-90.3386,11.0,21.7,11111222
BP,ioos:station:wmo:42907:2,2021-01-13T07:23:00Z,27.1318,-90.3386,11.0,21.6,11111222
BP,ioos:station:wmo:42907:2,2021-01-13T07:33:00Z,27.1318,-90.3386,11.0,21.7,11111222
BP,ioos:station:wmo:42907:2,2021-01-13T07:43:00Z,27.1318,-90.3386,11.0,21.7,11111222
BP,ioos:station:wmo:42907:2,2021-01-13T07:53:00Z,27.1318,-90.3386,11.0,21.8,11111222
BP,ioos:station:wmo:42907:2,2021-01-13T08:03:00Z,27.1318,-90.3386,11.0,21.7,11111222
BP,ioos:station:wmo:42907:2,2021-01-13T08:13:00Z,27.1318,-90.3386,11.0,21.8,11111222
BP,ioos:station:wmo:42907:2,2021-01-13T08:23:00Z,27.1318,-90.3386,11.0,21.8,11111222
BP,ioos:station:wmo:42907:2,2021-01-13T08:33:00Z,27.1318,-90.3386,11.0,21.7,11111222
BP,ioos:station:wmo:42907:2,2021-01-13T08:43:00Z,27.1318,-90.3386,11.0,21.7,11111222
BP,ioos:station:wmo:42907:2,2021-01-13T08:53:00Z,27.1318,-90.3386,11.0,21.7,11111222
BP,ioos:station:wmo:42907:2,2021-01-13T09:03:00Z,27.1318,-90.3386,11.0,21.7,11111222
BP,ioos:station:wmo:42907:2,2021-01-13T09:13:00Z,27.1318,-90.3386,11.0,21.7,11111222
BP,ioos:station:wmo:42907:2,2021-01-13T09:23:00Z,27.1318,-90.3386,11.0,21.8,11111222
BP,ioos:station:wmo:42907:2,2021-01-13T09:33:00Z,27.1318,-90.3386,11.0,21.8,11111222
BP,ioos:station:wmo:42907:2,2021-01-13T09:43:00Z,27.1318,-90.3386,11.0,21.8,11111222
BP,ioos:station:wmo:42907:2,2021-01-13T09:53:00Z,27.1318,-90.3386,11.0,21.7,11111222
BP,ioos:station:wmo:42907:2,2021-01-13T10:03:00Z,27.1318,-90.3386,11.0,21.8,11111222
BP,ioos:station:wmo:42907:2,2021-01-13T10:13:00Z,27.1318,-90.3386,11.0,21.8,11111222
BP,ioos:station:wmo:42907:2,2021-01-13T10:23:00Z,27.1318,-90.3386,11.0,21.7,11111222
BP,ioos:station:wmo:42907:2,2021-01-13T10:33:00Z,27.1318,-90.3386,11.0,21.7,11111222
BP,ioos:station:wmo:42907:2,2021-01-13T10:43:00Z,27.1318,-90.3386,11.0,21.8,11111222
BP,ioos:station:wmo:42907:2,2021-01-13T10:53:00Z,27.1318,-90.3386,11.0,21.8,11111222
BP,ioos:station:wmo:42907:2,2021-01-13T11:03:00Z,27.1318,-90.3386,11.0,21.8,11111222
BP,ioos:station:wmo:42907:2,2021-01-13T11:13:00Z,27.1318,-90.3386,11.0,21.9,11111222
BP,ioos:station:wmo:42907:2,2021-01-13T11:23:00Z,27.1318,-90.3386,11.0,21.7,11111222
BP,ioos:station:wmo:42907:2,2021-01-13T11:33:00Z,27.1318,-90.3386,11.0,21.7,11111222
BP,ioos:station:wmo:42907:2,2021-01-13T11:43:00Z,27.1318,-90.3386,11.0,21.8,11111222
BP,ioos:station:wmo:42907:2,2021-01-13T11:53:00Z,27.1318,-90.3386,11.0,21.8,11111222
BP,ioos:station:wmo:42907:2,2021-01-13T12:03:00Z,27.1318,-90.3386,11.0,21.7,11111222
BP,ioos:station:wmo:42907:2,2021-01-13T12:13:00Z,27.1318,-90.3386,11.0,21.7,11111222
BP,ioos:station:wmo:42907:2,2021-01-13T12:23:00Z,27.1318,-90.3386,11.0,21.8,11111222
BP,ioos:station:wmo:42907:2,2021-01-13T12:33:00Z,27.1318,-90.3386,11.0,21.6,11111222
BP,ioos:station:wmo:42907:2,2021-01-13T12:43:00Z,27.1318,-90.3386,11.0,21.9,11111222
BP,ioos:station:wmo:42907:2,2021-01-13T12:53:00Z,27.1318,-90.3386,11.0,21.8,11111222
BP,ioos:station:wmo:42907:2,2021-01-13T13:03:00Z,27.1318,-90.3386,11.0,21.8,11111222
BP,ioos:station:wmo:42907:2,2021-01-13T13:13:00Z,27.1318,-90.3386,11.0,21.8,11111222
BP,ioos:station:wmo:42907:2,2021-01-13T13:23:00Z,27.1318,-90.3386,11.0,21.8,11111222
BP,ioos:station:wmo:42907:2,2021-01-13T13:33:00Z,27.1318,-90.3386,11.0,21.7,11111222
BP,ioos:station:wmo:42907:2,2021-01-13T13:43:00Z,27.1318,-90.3386,11.0,21.8,11111222
BP,ioos:station:wmo:42907:2,2021-01-13T13:53:00Z,27.1318,-90.3386,11.0,21.7,11111222
BP,ioos:station:wmo:42907:2,2021-01-13T14:03:00Z,27.1318,-90.3386,11.0,21.8,11111222
BP,ioos:station:wmo:42907:2,2021-01-13T14:13:00Z,27.1318,-90.3386,11.0,21.8,11111222
BP,ioos:station:wmo:42907:2,2021-01-13T14:23:00Z,27.1318,-90.3386,11.0,21.7,11111222
BP,ioos:station:wmo:42907:2,2021-01-13T14:33:00Z,27.1318,-90.3386,11.0,21.6,11111222
BP,ioos:station:wmo:42907:2,2021-01-13T14:43:00Z,27.1318,-90.3386,11.0,21.6,11111222
BP,ioos:station:wmo:42907:2,2021-01-13T14:53:00Z,27.1318,-90.3386,11.0,21.6,11111222
BP,ioos:station:wmo:42907:2,2021-01-13T15:03:00Z,27.1318,-90.3386,11.0,21.7,11111222
BP,ioos:station:wmo:42907:2,2021-01-13T15:13:00Z,27.1318,-90.3386,11.0,21.9,11111222
BP,ioos:station:wmo:42907:2,2021-01-13T15:23:00Z,27.1318,-90.3386,11.0,21.8,11111222
BP,ioos:station:wmo:42907:2,2021-01-13T15:33:00Z,27.1318,-90.3386,11.0,21.7,11111222
BP,ioos:station:wmo:42907:2,2021-01-13T15:43:00Z,27.1318,-90.3386,11.0,21.9,11111222
BP,ioos:station:wmo:42907:2,2021-01-13T15:53:00Z,27.1318,-90.3386,11.0,21.8,11111222
BP,ioos:station:wmo:42907:2,2021-01-13T16:03:00Z,27.1318,-90.3386,11.0,21.7,11111222
BP,ioos:station:wmo:42907:2,2021-01-13T16:13:00Z,27.1318,-90.3386,11.0,21.8,11111222
BP,ioos:station:wmo:42907:2,2021-01-13T16:23:00Z,27.1318,-90.3386,11.0,21.6,11111222
BP,ioos:station:wmo:42907:2,2021-01-13T16:33:00Z,27.1318,-90.3386,11.0,21.6,11111222
BP,ioos:station:wmo:42907:2,2021-01-13T16:43:00Z,27.1318,-90.3386,11.0,21.8,11111222
BP,ioos:station:wmo:42907:2,2021-01-13T16:53:00Z,27.1318,-90.3386,11.0,21.7,11111222
BP,ioos:station:wmo:42907:2,2021-01-13T17:03:00Z,27.1318,-90.3386,11.0,21.8,11111222
BP,ioos:station:wmo:42907:2,2021-01-13T17:13:00Z,27.1318,-90.3386,11.0,21.7,11111222
BP,ioos:station:wmo:42907:2,2021-01-13T17:23:00Z,27.1318,-90.3386,11.0,21.8,11111222
BP,ioos:station:wmo:42907:2,2021-01-13T17:33:00Z,27.1318,-90.3386,11.0,21.6,11111222
BP,ioos:station:wmo:42907:2,2021-01-13T17:43:00Z,27.1318,-90.3386,11.0,21.8,11111222
BP,ioos:station:wmo:42907:2,2021-01-13T17:53:00Z,27.1318,-90.3386,11.0,21.9,11111222
BP,ioos:station:wmo:42907:2,2021-01-13T18:03:00Z,27.1318,-90.3386,11.0,21.8,11111222
BP,ioos:station:wmo:42907:2,2021-01-13T18:13:00Z,27.1318,-90.3386,11.0,21.8,11111222
BP,ioos:station:wmo:42907:2,2021-01-13T18:23:00Z,27.1318,-90.3386,11.0,22.0,11111222
BP,ioos:station:wmo:42907:2,2021-01-13T18:33:00Z,27.1318,-90.3386,11.0,21.9,11111222
BP,ioos:station:wmo:42907:2,2021-01-13T18:43:00Z,27.1318,-90.3386,11.0,21.9,11111222
BP,ioos:station:wmo:42907:2,2021-01-13T18:53:00Z,27.1318,-90.3386,11.0,22.1,11111222
BP,ioos:station:wmo:42907:2,2021-01-13T19:03:00Z,27.1318,-90.3386,11.0,22.0,11111222
BP,ioos:station:wmo:42907:2,2021-01-13T19:13:00Z,27.1318,-90.3386,11.0,22.1,11111222
BP,ioos:station:wmo:42907:2,2021-01-13T19:23:00Z,27.1318,-90.3386,11.0,22.1,11111222
BP,ioos:station:wmo:42907:2,2021-01-13T19:33:00Z,27.1318,-90.3386,11.0,22.1,11111222
BP,ioos:station:wmo:42907:2,2021-01-13T19:43:00Z,27.1318,-90.3386,11.0,22.0,11111222
BP,ioos:station:wmo:42907:2,2021-01-13T19:53:00Z,27.1318,-90.3386,11.0,22.1,11111222
BP,ioos:station:wmo:42907:2,2021-01-13T20:03:00Z,27.1318,-90.3386,11.0,22.5,11111222
BP,ioos:station:wmo:42907:2,2021-01-13T20:13:00Z,27.1318,-90.3386,11.0,22.1,11111222
BP,ioos:station:wmo:42907:2,2021-01-13T20:23:00Z,27.1318,-90.3386,11.0,22.3,11111222
BP,ioos:station:wmo:42907:2,2021-01-13T20:33:00Z,27.1318,-90.3386,11.0,22.3,11111222
BP,ioos:station:wmo:42907:2,2021-01-13T20:43:00Z,27.1318,-90.3386,11.0,22.3,11111222
BP,ioos:station:wmo:42907:2,2021-01-13T20:53:00Z,27.1318,-90.3386,11.0,22.3,11111222
BP,ioos:station:wmo:42907:2,2021-01-13T21:03:00Z,27.1318,-90.3386,11.0,22.3,11111222